Regional Weather Roundup
Issued by NWS

Home | Current Version | Previous Version | Text Only | Print | Product List | Glossary Off
Versions: 1 2 3 4 5 6 7 8 9 10 11 12 13 14 15 16 17 18 19 20 21 22 23 24 25 26 27 28 29 30 31 32 33 34 35 36 37 38 39 40 41 42 43 44 45 46 47 48 49 50

000
ASUS43 KBIS 312302
RWRND

NORTH DAKOTA REGIONAL WEATHER ROUNDUP
NATIONAL WEATHER SERVICE BISMARCK ND
600 PM CDT FRI JUL 31 2015

NOTE: "FAIR" INDICATES FEW OR NO CLOUDS BELOW 12,000 FEET WITH NO
SIGNIFICANT WEATHER AND/OR OBSTRUCTIONS TO VISIBILITY.


NDZ001>003-009>011-017-010000-
NORTHWEST NORTH DAKOTA

CITY           SKY/WX    TMP DP  RH WIND       PRES   REMARKS
WILLISTON      SUNNY     88  45  22 E5        30.06F
MINOT          SUNNY     82  47  29 NW8       30.05F
MINOT AFB      SUNNY     85  45  25 NW10      30.04F
$$

NDZ018>021-031>035-040>046-010000-
SOUTHWEST NORTH DAKOTA

CITY           SKY/WX    TMP DP  RH WIND       PRES   REMARKS
BISMARCK       SUNNY     88  50  27 N8        30.06F
DICKINSON      SUNNY     88  43  20 SE6       30.07F
GARRISON         N/A     83  53  35 N6        30.07F
HETTINGER ARPT SUNNY     88  37  16 SW3       30.11F
$$

NDZ004>008-012>016-024-026-027-054-010000-
NORTHEAST NORTH DAKOTA

CITY           SKY/WX    TMP DP  RH WIND       PRES   REMARKS
GRAND FORKS    MOSUNNY   81  48  31 NW15      29.98F
GRND FRKS AFB  SUNNY     79  50  35 NW14      30.00F
DEVILS LAKE    SUNNY     79  50  36 NW10G17   30.02F
$$

NDZ022-023-025-028>030-036>039-047>053-010000-
SOUTHEAST NORTH DAKOTA

CITY           SKY/WX    TMP DP  RH WIND       PRES   REMARKS
FARGO          SUNNY     83  55  38 NW13      30.00F
JAMESTOWN      SUNNY     82  53  36 NW13      30.02F
$$




USA.gov is the U.S. government's official web portal to all federal, state and local government web resources and services.